This is the latest recevied weather packets stored in our database for station/object M0TUM-1. If no packets are shown the sender has not sent any weather packets the latest 10 day(s).
| Time | Temp. | Humidity | Pressure | Rain* | Wind** | Luminosity | Snow |
|---|---|---|---|---|---|---|---|
| 1777661619 | 19.44° C | 42% | 1018.4 hPa | 0 mm | - | 16 W/m² | - |
| 1777661315 | 19.44° C | 41% | 1018.5 hPa | 0 mm | - | 19 W/m² | - |
| 1777661011 | 20° C | 40% | 1018.3 hPa | 0 mm | - | 23 W/m² | - |
| 1777660707 | 20° C | 40% | 1018.5 hPa | 0 mm | - | 26 W/m² | - |
| 1777660405 | 20.56° C | 39% | 1018.3 hPa | 0 mm | - | 29 W/m² | - |
| 1777660101 | 20.56° C | 38% | 1018.6 hPa | 0 mm | - | 32 W/m² | - |
| 1777659798 | 21.11° C | 37% | 1018.6 hPa | 0 mm | - | 37 W/m² | - |
| 1777659495 | 21.11° C | 37% | 1018.4 hPa | 0 mm | - | 39 W/m² | - |
| 1777659192 | 21.67° C | 37% | 1018.3 hPa | 0 mm | - | 43 W/m² | - |
| 1777658889 | 21.11° C | 37% | 1018.3 hPa | 0 mm | - | 46 W/m² | - |
| 1777658585 | 21.11° C | 36% | 1018.2 hPa | 0 mm | - | 52 W/m² | - |
| 1777658282 | 21.67° C | 36% | 1018.4 hPa | 0 mm | - | 60 W/m² | - |
| 1777657979 | 21.67° C | 35% | 1018.4 hPa | 0 mm | - | 77 W/m² | - |
| 1777657675 | 22.22° C | 35% | 1018.3 hPa | 0 mm | - | 88 W/m² | - |
| 1777657373 | 21.67° C | 35% | 1018.1 hPa | 0 mm | - | 97 W/m² | - |
| 1777657071 | 22.22° C | 34% | 1018.3 hPa | 0 mm | - | 107 W/m² | - |
| 1777656768 | 22.78° C | 33% | 1018.5 hPa | 0 mm | - | 117 W/m² | - |
| 1777656463 | 22.22° C | 33% | 1018.4 hPa | 0 mm | - | 126 W/m² | - |
| 1777656159 | 22.22° C | 33% | 1018.2 hPa | 0 mm | - | 141 W/m² | - |
| 1777655854 | 22.22° C | 32% | 1018.3 hPa | 0 mm | - | 153 W/m² | - |
| 1777655552 | 22.78° C | 32% | 1018.5 hPa | 0 mm | - | 162 W/m² | - |
| 1777655249 | 22.78° C | 32% | 1018.4 hPa | 0 mm | - | 169 W/m² | - |
| 1777654946 | 23.33° C | 31% | 1018.3 hPa | 0 mm | - | 186 W/m² | - |
| 1777654643 | 23.33° C | 31% | 1018.4 hPa | 0 mm | - | 198 W/m² | - |
| 1777654341 | 23.33° C | 31% | 1018.6 hPa | 0 mm | - | 207 W/m² | - |
* Rain latest hour (hover to see other rain measurements)
** Current wind speed in m/s (hover to see current wind gust speed)